sat.trackr.live / text

‹ back to catalog

STARLINK-5260

NORAD 55275 · 2023-010G

PAYLOAD ACTIVE UNKNOWN

§ Identity

Operator
Country
US
Launch date
2023-01-19
Launch site
AFWTR
Launch vehicle
Mass (kg)
RCS (m²)

Purposes: comms

External: N2YO · Heavens-Above · Gunter

§ Orbital elements

Epoch: 2026-09-20T09:50:40.607808Z

Period
96.11 min
Inclination
69.9992°
Eccentricity
0.0003657
Mean motion
14.98331215 rev/d
Perigee alt
569.5 km
Apogee alt
574.6 km
Semi-major
6,950.2 km
B*
-2.9484e-6
RAAN
253.6078°
Arg perigee
267.7907°
Mean anomaly
92.2833°
Rev number
20,244

§ Raw data

STARLINK-52601 55275U 23010G   26263.41019222 -.00000128  00000+0 -29484-5 0  99942 55275  69.9992 253.6078 0003657 267.7907  92.2833 14.98331215202446

JSON: /api/v1/satellites/55275 · /tle

For live sub-satellite position, see the globe view (requires WebGL).

§ Visibility from observer

Set your observer location to see the next 7 days of passes ≥ 10°. The values pass through the URL so the page stays shareable.

No JS? Fill the form by hand. The geolocation button needs JavaScript.